Regional Weather Roundup
Issued by NWS

Home | Current Version | Previous Version | Text Only | Print | Product List | Glossary On
Versions: 1 2 3 4 5 6 7 8 9 10 11 12 13 14 15 16 17 18 19 20 21 22 23 24 25 26 27 28 29 30 31 32 33 34 35 36 37 38 39 40 41 42 43 44 45 46 47 48 49
000
ASUS43 KDMX 021907
RWRIA

WEATHER ROUNDUP FOR IOWA
NATIONAL WEATHER SERVICE DES MOINES IA
200 PM CDT SUN AUG 02 2015

NOTE: "FAIR" INDICATES FEW OR NO CLOUDS BELOW 12,000 FEET WITH NO
SIGNIFICANT WEATHER AND/OR OBSTRUCTIONS TO VISIBILITY.

* - THESE STATIONS ARE NOT NWS STATIONS...THUS NOT UNDER NWS
QUALITY CONTROL.  THEY ALSO DO NOT REPORT WEATHER SUCH
AS PRECIPITATION OR FOG.

IAZ001>003-012>014-020>022-031>034-043>046-022000-
   NORTHWEST IOWA

CITY           SKY/WX    TMP DP  RH WIND       PRES   REMARKS
CARROLL *      SUNNY     86  75  70 W15G21    29.78F HX  95
CHEROKEE *     SUNNY     84  73  70 NW9       29.81R HX  91
DENISON *      SUNNY     86  75  70 SW14      29.77F HX  95
LE MARS *      SUNNY     84  72  65 VRB5G12   29.82S HX  89
ORANGE CITY *  SUNNY     82  68  61 NW7       29.82S HX  85
SHELDON *      SUNNY     82  70  65 NW12      29.81R HX  86
SPENCER        SUNNY     88  65  46 NW10      29.80R HX  90
STORM LAKE *   SUNNY     84  73  70 NW10G17   29.82R HX  91
$$

IAZ055>058-069>071-079>083-090>094-022000-
   SOUTHWEST IOWA

CITY           SKY/WX    TMP DP  RH WIND       PRES   REMARKS
ATLANTIC *     SUNNY     90  77  66 SW17      29.81F HX 102
AUDUBON *      SUNNY     88  75  66 SW13G20   29.82S HX  97
CLARINDA *     SUNNY     90  77  66 SW15      29.86S HX 102
COUNCIL BLFS * SUNNY     91  75  59 MISG      29.82F HX 102
CRESTON *      SUNNY     88  75  66 SW16G24   29.85S HX  97
HARLAN  *      SUNNY     88  81  79 SW12      29.85S HX 105
LAMONI         SUNNY     89  75  63 SW20      29.85S HX  99
RED OAK *      SUNNY     90  77  66 SW15G22   29.83F HX 102
SHENANDOAH *   SUNNY     90  77  66 SW13      29.84F HX 102
$$

IAZ047>049-059>061-072>074-084-022000-
   CENTRAL IOWA

CITY           SKY/WX    TMP DP  RH WIND       PRES   REMARKS
AMES           SUNNY     87  73  62 W16       29.76F HX  94
ANKENY *       SUNNY     91  73  55 W13G21    29.77S HX 100
CHARITON *     SUNNY     90  73  58 SW15G22   29.82F HX  98
DES MOINES     MOSUNNY   93  72  50 W21G28    29.77F HX 101
GRINNELL*      SUNNY     88  73  62 SW18      29.78F HX  96
KNOXVILLE *    SUNNY     90  73  58 W16G24    29.79F HX  98
MARSHALLTOWN   SUNNY     88  75  65 W15       29.75F HX  97
PELLA *        SUNNY     90  77  66 W10G21    29.80F HX 102
PERRY *          N/A     88  75  66 W12G20    29.79S HX  97
$$

IAZ004>006-015-016-023>025-035-036-022000-
   NORTH CENTRAL IOWA

CITY           SKY/WX    TMP DP  RH WIND       PRES   REMARKS
ALGONA *       SUNNY     88  72  58 NW13      29.77R HX  94
CLARION *      SUNNY     86  75  70 SW13      29.76S HX  95
ESTHERVILLE    SUNNY     84  67  56 NW14G22   29.78R HX  86
FORT DODGE *   SUNNY     88  73  62 SW10G17   29.77F HX  96
MASON CITY     SUNNY     87  73  62 W14       29.76R HX  94
FOREST CITY *  SUNNY     86  70  58 W12G17    29.75R HX  90
IOWA FALLS *     N/A     86  73  66 SW14      29.77S HX  93
$$

IAZ007>011-017>019-026>030-037>042-050>054-066-022000-
   NORTHEAST IOWA

CITY           SKY/WX    TMP DP  RH WIND       PRES   REMARKS
CEDAR RAPIDS   SUNNY     87  76  69 SW18      29.75F HX  97
CHARLES CITY * SUNNY     86  77  74 W15G23    29.73R HX  97
CLINTON *      MOSUNNY   88  73  62 SW14      29.78F HX  96
DECORAH *      SUNNY     86  72  62 SW9G24    29.68S HX  92
DUBUQUE        SUNNY     86  71  60 SW22G29   29.73F HX  91
MONTICELLO *   SUNNY     88  73  62 SW14G23   29.74F HX  96
OELWEIN *      SUNNY     86  75  70 SW14G23   29.73F HX  95
WATERLOO       SUNNY     88  74  63 SW20      29.72S HX  96
$$

IAZ064-065-067-068-078-022000-
   EAST CENTRAL IOWA

CITY           SKY/WX    TMP DP  RH WIND       PRES   REMARKS
DAVENPORT      MOSUNNY   88  73  61 SW15G23   29.78F HX  95
IOWA CITY      SUNNY     89  75  63 SW10G23   29.78F HX  99
MT. PLEASANT * MOSUNNY   90  70  51 SW17      29.82F HX  95
MUSCATINE *    SUNNY     90  72  55 SW17G26   29.78F HX  96
QUAD CITIES    MOSUNNY   90  71  53 SW17      29.77F HX  96
$$

IAZ062-063-075>077-085>089-095>099-022000-
   SOUTHEAST IOWA

CITY           SKY/WX    TMP DP  RH WIND       PRES   REMARKS
BURLINGTON     SUNNY     89  75  63 SW10      29.82  HX  99
FAIRFIELD *    MOSUNNY   88  73  62 SW12G21   29.81F HX  96
FORT MADISON * SUNNY     88  75  66 SW7       29.84F HX  97
KEOKUK *       SUNNY     90  73  58 SW13G22   29.83F HX  98
OSKALOOSA *      N/A     88  75  66 SW13G18   29.80F HX  97
CENTERVILLE *  SUNNY     88  75  66 SW15G21   29.85F HX  97
OTTUMWA        MOSUNNY   87  75  67 SW18G25   29.79F HX  96
WASHINGTON *   MOSUNNY   88  77  70 SW13G18   29.81F HX 100
$$

ABBREVIATIONS USED IN REMARKS
   TC - TEMPERATURES IN CELSIUS
  WCI - WIND CHILL INDEX
   HX - HEAT INDEX
  VSB - VISIBILITY
$$




USA.gov is the U.S. government's official web portal to all federal, state and local government web resources and services.